Regional Weather Roundup
Issued by NWS

Home | Current Version | Previous Version | Graphics & Text | Print | Product List | Glossary Off
Versions: 1 2 3 4 5 6 7 8 9 10 11 12 13 14 15 16 17 18 19 20 21 22 23 24 25 26 27 28 29 30 31 32 33 34 35 36 37 38 39 40 41 42 43 44 45 46 47 48 49 50

000
ASUS43 KDTX 282001
RWRMI
MICHIGAN HOURLY REGIONAL WEATHER ROUNDUP
NATIONAL WEATHER SERVICE DETROIT/PONTIAC MI
400 PM EDT SAT MAR 28 2015

NOTE: "FAIR" INDICATES FEW OR NO CLOUDS BELOW 12,000 FEET WITH NO
SIGNIFICANT WEATHER AND/OR OBSTRUCTION TO VISIBILITY.

MIZ047>049-052>055-059>063-066>070-074>076-081>083-282100-
SOUTHEAST LOWER MICHIGAN

CITY           SKY/WX    TMP DP  RH WIND       PRES   REMARKS
ADRIAN         SUNNY     34   9  35 MISG      30.27F
ALMA           SUNNY     35   2  25 CALM      30.26F
ANN ARBOR      SUNNY     35   7  31 NW7       30.25F WCI  29
BAD AXE        SUNNY     29  10  45 NW6       30.27S WCI  23
CARO           SUNNY     31   8  38 N5        30.27F WCI  27
DETROIT CITY   MOSUNNY   37   9  31 N9        30.26F WCI  30
DETROIT        MOSUNNY   37   9  31 N8        30.27F WCI  31
FLINT          SUNNY     35   5  28 N5        30.26F WCI  31
GROSSE ILE     SUNNY     34   9  35 S8        30.25F WCI  27
HILLSDALE      SUNNY     34   5  29 NW3       30.24F
HOWELL         SUNNY     32   7  35 W8        30.25F WCI  25

CITY           SKY/WX    TMP DP  RH WIND       PRES   REMARKS
JACKSON        SUNNY     34   4  28 VRB5      30.25F WCI  30
LAMBERTVILLE   SUNNY     34  10  37 N7        30.28S WCI  28
LANSING        SUNNY     33   7  33 NE7       30.28F WCI  27
LAPEER         FAIR      32   9  38 NW7       30.25F WCI  26
MASON          SUNNY     32   7  34 N6        30.26F WCI  26
MONROE         MOSUNNY   32  18  55 S9        30.26S WCI  24
MT. CLEMENS    MOSUNNY   33  13  42 NW7G17    30.24F WCI  27
PONTIAC        MOSUNNY   33   5  30 VRB6      30.23F WCI  28
PORT HOPE        N/A     29  10  45 N5        30.26F WCI  24
PORT HURON     PTSUNNY   30  18  59 N7        30.26F WCI  23
TRI CITIES     SUNNY     35   4  27 W7        30.26F WCI  29
TROY           SUNNY     35   8  32 CALM      30.27S
SAGINAW HB     SUNNY     34   5  29 CALM      30.26F
$$
MIZ043>046-050>051-056>058-064>065-071>073-077>080-282100-
SOUTHWEST LOWER MICHIGAN

CITY           SKY/WX    TMP DP  RH WIND       PRES   REMARKS
BATTLE CREEK   SUNNY     36   2  23 VRB5      30.27F WCI  32
BENTON HARBOR  SUNNY     26  11  52 NW8       30.32F WCI  18
BIG RAPIDS     SUNNY     34   0  23 W3        30.24F
COLDWATER      SUNNY     34   5  29 NW6       30.26F WCI  29
FREMONT        FAIR      35  -3  19 SW6       30.26F WCI  30
HOLLAND        SUNNY     31  12  45 W9        30.31F WCI  23
GRAND RAPIDS   SUNNY     36   4  26 W8        30.28F WCI  30
IONIA          FAIR      35   2  24 NE3       30.26F
KALAMAZOO      SUNNY     36   3  25 CALM      30.28F
LUDINGTON      SUNNY     31  14  50 W8        30.31S WCI  23
MARSHALL       SUNNY     33   3  28 CALM      30.25F
MOUNT PLEASANT SUNNY     36   3  25 NW3       30.25F
MUSKEGON       SUNNY     30   5  34 W9        30.31F WCI  22
SOUTH HAVEN    SUNNY     30  11  45 NW7       30.32F WCI  23
$$
MIZ016>042-282100-
NORTHERN LOWER MICHIGAN

CITY           SKY/WX    TMP DP  RH WIND       PRES   REMARKS
ALPENA         SUNNY     35   7  31 VRB5      30.23F WCI  31
BEAVER ISLAND  SUNNY     28  16  61 SW9G16    30.27F WCI  19
BELLAIRE       SUNNY     31   2  28 W6        30.28F WCI  25
CADILLAC       SUNNY     34   0  24 N3        30.20F
CHARLEVOIX     SUNNY     28   8  42 W9        30.30F WCI  19
FRANKFORT      SUNNY     30   8  39 W6        30.30F WCI  24
GAYLORD        SUNNY     29   4  34 VRB6      30.20F WCI  23
GRAYLING       SUNNY     33   1  26 CALM      30.21F
HARBOR SPRINGS SUNNY     28   2  34 W6        30.26F WCI  21
HOUGHTON LAKE  SUNNY     34   3  27 SW8       30.22F WCI  27
MANISTEE       SUNNY     28   3  34 NW12      30.31R WCI  18
OSCODA         SUNNY     30  13  47 E10       30.25F WCI  21
PELLSTON       SUNNY     30   5  34 W10       30.26F WCI  21
ROGERS CITY    SUNNY     29  15  57 N12       30.25F WCI  19
TRAVERSE CITY  SUNNY     31   9  39 NE12      30.26F WCI  22
$$
MIZ007>008-015-282100-
EASTERN UPPER MICHIGAN

CITY           SKY/WX    TMP DP  RH WIND       PRES   REMARKS
KINROSS        SUNNY     30   9  40 W13       30.21F WCI  20
MACKINAC ISLAN SUNNY     25  14  62 W12       30.25F WCI  14
NEWBERRY       SUNNY     29  10  44 SW3       30.21F
S. S. MARIE    SUNNY     31   6  35 N6        30.21F WCI  25
$$
MIZ004>006-011>014-085-282100-
CENTRAL UPPER MICHIGAN

CITY           SKY/WX    TMP DP  RH WIND       PRES   REMARKS
MANISTIQUE     SUNNY     29  19  66 S15G22    30.24F WCI  17
ESCANABA       SUNNY     30  16  55 S15G21    30.23F WCI  19
MENOMINEE      SUNNY     36  18  48 SW9G16    30.24F WCI  29
SAWYER-GWINN   SUNNY     36   3  25 SW10      30.16F WCI  28
$$
MIZ001>003-009>011-084-282100-
WESTERN UPPER MICHIGAN

CITY           SKY/WX    TMP DP  RH WIND       PRES   REMARKS
IRON MOUNTAIN  SUNNY     39   8  27 S8        30.15F WCI  33
HOUGHTON       SUNNY     35   5  28 W8        30.13F WCI  29
COPPER HARBOR    N/A     31  14  49 NE5       30.17F WCI  26
IRONWOOD       SUNNY     39   9  28 SW16      30.09F WCI  30
$$

ABBREVIATIONS USED IN REMARKS
   TC - TEMPERATURE IN CELSIUS
  WCI - WIND CHILL INDEX
   HX - HEAT INDEX
  VSB - VISIBILITY



USA.gov is the U.S. government's official web portal to all federal, state and local government web resources and services.